Location: Moscow
(38.8570°N, 84.2291°W)
Time: 05:50:11
(UTC+00:00)

DNEPR-1 R/B - Pass Details

Date: 15 November 2025
Orbit: 588 x 1326 km, 64.6° (Epoch: 08 December)

Event Time Altitude Azimuth Distance (km) Brightness Sun altitude
Rises 22:51:11 0° 331° (NNW) 2,908 7.1 -6.0°
Reaches altitude 10° 22:53:20 10° 334° (NNW) 2,052 6.3 -6.4°
Maximum altitude 22:57:56 68° 58° (ENE) 771 3.8 -7.2°
Drops below altitude 10° 23:03:21 10° 141° (SE) 2,412 6.4 -8.2°
Sets 23:06:02 0° 144° (SE) 3,465 7.2 -8.7°
